Hourly Data Report for September 10, 2017

All times are specified in Local Standard Time (LST). Add 1 hour to adjust for Daylight Saving Time where and when it is observed.

TORONTO INTL A
ONTARIO

43°40'36.000" N
79°37'50.000" W
173.40 m
6158731
71624
YYZ

Download Data

Hourly Data (September 2017)
Hourly Data Report for September 10, 2017
Temp Definition
°C
Dew Point Temp Definition
°C
Rel Hum Definition
%
Wind Dir Definition
10's deg

Wind Spd Definition
km/h
Visibility Definition
km
Stn Press Definition
kPa
Hmdx Definition


Wind Chill Definition


Weather Definition


TIME
00:00 Legend Double Dagger 10.0 5.5 73 34 9 24.1 100.99     LegendNANA
01:00 Legend Double Dagger 9.5 5.4 75 34 8 24.1 101.01     Clear
02:00 Legend Double Dagger 9.4 5.5 76 35 10 24.1 101.01     LegendNANA
03:00 Legend Double Dagger 9.1 5.5 78 34 8 24.1 101.03     LegendNANA
04:00 Legend Double Dagger 8.7 5.5 81 0 1 24.1 101.06     Clear
05:00 Legend Double Dagger 8.5 5.4 81 34 9 24.1 101.10     LegendNANA
06:00 Legend Double Dagger 8.5 5.5 81 36 8 24.1 101.16     LegendNANA
07:00 Legend Double Dagger 9.9 6.1 77 32 9 24.1 101.20     Clear
08:00 Legend Double Dagger 11.8 6.5 70 1 9 24.1 101.25     LegendNANA
09:00 Legend Double Dagger 14.8 6.6 58 1 9 24.1 101.27     LegendNANA
10:00 Legend Double Dagger 16.4 5.5 48 1 5 24.1 101.25     Clear
11:00 Legend Double Dagger 17.7 4.9 42 4 13 24.1 101.23     LegendNANA
12:00 Legend Double Dagger 18.4 4.7 40 1 10 24.1 101.18     LegendNANA
13:00 Legend Double Dagger 19.0 6.0 42 13 14 24.1 101.12     Clear
14:00 Legend Double Dagger 18.3 5.2 42 16 12 24.1 101.07     LegendNANA
15:00 Legend Double Dagger 18.4 5.8 43 16 14 24.1 101.01     LegendNANA
16:00 Legend Double Dagger 17.7 5.9 46 16 13 24.1 100.97     Clear
17:00 Legend Double Dagger 17.1 6.4 49 15 13 24.1 100.97     LegendNANA
18:00 Legend Double Dagger 16.3 6.5 52 16 9 24.1 100.96     LegendNANA
19:00 Legend Double Dagger 15.3 6.2 54 18 8 24.1 100.96     Mainly Clear
20:00 Legend Double Dagger 14.7 6.4 57 14 4 24.1 100.95     LegendNANA
21:00 Legend Double Dagger 13.4 6.7 64 25 5 24.1 100.96     LegendNANA
22:00 Legend Double Dagger 13.8 6.5 61 24 9 24.1 100.98     Clear
23:00 Legend Double Dagger 13.7 6.6 62 31 3 24.1 100.98     LegendNANA

Notes on Data Quality.

Legend

  • E = Estimated
  • M = Missing
  • NA = Not Available
  • ‡ = Partner data that is not subject to review by the National Climate Archives
Date modified: